Language: 


Des rapports , des résumés tant et plus, au choix de chacun....


Données Historiques de Météogheer
Journalier Rapport pour Octobre 3, 2017 Unitée:  Métrique    Impériale   Les deux
Suivant Jour »
Journalier Hebdomadaire Mensuel Annuel Sur mesure
  Max: Min: Moyenne:
Température: 18.3 °C 8.7 °C 12.7 °C
Point de rosée: 14.0 °C 9.0 °C 10.4 °C
Humidité: 98% 57% 85%
Vent: 16.3km/h 0.0km/h 4.8km/h
Rafales: 17.2km/h - -
Vent- - WSW
Pression: 1024.9 hPa 1015.1 hPa -
Pluie: 2.0 mm    
Historical Graphs
 
 
Données tabulaires pour Octobre 3, 2017
Heure Température Point de rosée Pression Vent Vent Rafales Humidité Pluie Taux (Horaire) Conditions
00:02 12.7 °C 13.0 °C 1015.1 hPa WSW 12.6 km/h 12.6 km/h 98% 0.5 mm
00:07 12.6 °C 13.0 °C 1015.1 hPa WSW 12.6 km/h 12.6 km/h 98% 0.5 mm
00:12 12.6 °C 13.0 °C 1015.1 hPa WSW 12.6 km/h 12.6 km/h 98% 0.8 mm
00:17 12.5 °C 13.0 °C 1015.1 hPa WSW 12.6 km/h 12.6 km/h 98% 0.8 mm
00:22 12.4 °C 13.0 °C 1015.1 hPa WSW 12.6 km/h 12.6 km/h 98% 0.5 mm
00:27 12.4 °C 13.0 °C 1015.1 hPa WSW 12.6 km/h 12.6 km/h 98% 0.8 mm
00:37 12.3 °C 13.0 °C 1015.1 hPa WSW 12.6 km/h 12.6 km/h 98% 1.5 mm
00:42 12.3 °C 13.0 °C 1015.1 hPa SSW 4.0 km/h 4.0 km/h 98% 1.5 mm
00:47 12.2 °C 12.0 °C 1015.1 hPa SSW 4.0 km/h 4.0 km/h 98% 1.8 mm
00:52 12.2 °C 12.0 °C 1015.1 hPa SSW 4.0 km/h 4.0 km/h 98% 1.8 mm
00:57 12.1 °C 12.0 °C 1015.1 hPa SSW 4.0 km/h 4.0 km/h 98% 1.8 mm
01:02 12.1 °C 12.0 °C 1015.1 hPa SSW 4.0 km/h 4.0 km/h 98% 1.8 mm
01:07 12.0 °C 12.0 °C 1015.1 hPa SSW 4.0 km/h 4.0 km/h 98% 1.8 mm
01:12 12.0 °C 12.0 °C 1015.1 hPa SSW 4.0 km/h 4.0 km/h 98% 1.5 mm
01:17 12.0 °C 12.0 °C 1015.1 hPa SSW 4.0 km/h 4.0 km/h 98% 1.5 mm
01:22 12.0 °C 12.0 °C 1015.1 hPa SSW 4.0 km/h 4.0 km/h 98% 1.5 mm
01:27 12.0 °C 12.0 °C 1015.1 hPa WSW 9.7 km/h 9.7 km/h 98% 1.3 mm
01:32 12.0 °C 12.0 °C 1015.1 hPa WSW 9.7 km/h 9.7 km/h 98% 0.8 mm
01:37 12.0 °C 12.0 °C 1015.1 hPa West 4.3 km/h 9.7 km/h 98% 0.5 mm
01:42 12.0 °C 12.0 °C 1015.1 hPa WSW 5.8 km/h 9.7 km/h 98% 0.5 mm
01:47 12.0 °C 12.0 °C 1015.1 hPa West 9.7 km/h 9.7 km/h 98% 0.3 mm
01:52 12.0 °C 12.0 °C 1015.1 hPa WSW 7.6 km/h 9.7 km/h 98% 0.3 mm
01:57 12.0 °C 12.0 °C 1015.1 hPa WSW 9.3 km/h 9.7 km/h 98% 0.3 mm
02:03 12.0 °C 12.0 °C 1015.1 hPa WSW 10.8 km/h 10.8 km/h 98% 0.0 mm
02:08 12.0 °C 12.0 °C 1015.1 hPa WSW 10.1 km/h 10.8 km/h 98% 0.0 mm
02:13 12.0 °C 12.0 °C 1015.1 hPa West 10.5 km/h 10.5 km/h 98% 0.0 mm
02:18 11.9 °C 12.0 °C 1015.1 hPa WSW 9.7 km/h 10.5 km/h 98% 0.0 mm
02:23 11.8 °C 12.0 °C 1015.1 hPa WSW 9.7 km/h 10.5 km/h 98% 0.0 mm
02:28 11.7 °C 12.0 °C 1015.1 hPa West 9.7 km/h 9.7 km/h 98% 0.0 mm
02:33 11.6 °C 12.0 °C 1015.1 hPa Calm   9.7 km/h 98% 0.0 mm
02:38 11.5 °C 12.0 °C 1015.1 hPa West 7.9 km/h 9.3 km/h 98% 0.0 mm
02:43 11.4 °C 11.0 °C 1015.1 hPa West 6.9 km/h 9.3 km/h 98% 0.0 mm
02:48 11.4 °C 11.0 °C 1015.1 hPa West 6.9 km/h 9.3 km/h 98% 0.0 mm
02:53 11.2 °C 11.0 °C 1015.1 hPa West 8.7 km/h 8.7 km/h 98% 0.0 mm
02:59 11.1 °C 11.0 °C 1015.1 hPa West 8.7 km/h 8.7 km/h 98% 0.0 mm
03:04 11.0 °C 11.0 °C 1015.1 hPa SW 4.7 km/h 10.1 km/h 98% 0.0 mm
03:09 10.9 °C 11.0 °C 1015.1 hPa WSW 6.9 km/h 10.1 km/h 98% 0.0 mm
03:14 10.8 °C 11.0 °C 1015.1 hPa Calm   6.9 km/h 98% 0.0 mm
03:19 10.8 °C 11.0 °C 1015.1 hPa WSW 6.4 km/h 6.9 km/h 98% 0.0 mm
03:24 10.6 °C 11.0 °C 1015.1 hPa WSW 6.4 km/h 6.9 km/h 98% 0.0 mm
03:29 10.6 °C 11.0 °C 1015.1 hPa Calm   6.4 km/h 98% 0.0 mm
03:34 10.6 °C 11.0 °C 1015.1 hPa Calm     98% 0.0 mm
03:39 10.6 °C 11.0 °C 1015.1 hPa WSW 5.8 km/h 5.8 km/h 98% 0.0 mm
03:44 10.6 °C 11.0 °C 1015.1 hPa WSW 5.8 km/h 5.8 km/h 98% 0.0 mm
03:49 10.4 °C 10.0 °C 1015.1 hPa Calm   5.8 km/h 98% 0.0 mm
03:54 10.4 °C 10.0 °C 1015.1 hPa WSW 8.7 km/h 8.7 km/h 98% 0.0 mm
03:59 10.4 °C 10.0 °C 1015.1 hPa WSW 6.9 km/h 8.7 km/h 98% 0.0 mm
04:04 10.4 °C 10.0 °C 1015.1 hPa WNW 6.9 km/h 8.7 km/h 98% 0.0 mm
04:09 10.4 °C 10.0 °C 1015.1 hPa WNW 6.9 km/h 8.7 km/h 98% 0.0 mm
04:14 10.3 °C 10.0 °C 1015.1 hPa WSW 5.8 km/h 6.9 km/h 98% 0.0 mm
04:19 10.3 °C 10.0 °C 1015.1 hPa West 6.9 km/h 6.9 km/h 98% 0.0 mm
04:24 10.3 °C 10.0 °C 1015.1 hPa West 3.5 km/h 6.9 km/h 98% 0.0 mm
04:29 10.2 °C 10.0 °C 1015.1 hPa West 3.5 km/h 6.4 km/h 98% 0.0 mm
04:34 10.2 °C 10.0 °C 1016.1 hPa West 7.9 km/h 7.9 km/h 98% 0.0 mm
04:39 10.2 °C 10.0 °C 1016.1 hPa West 6.4 km/h 7.9 km/h 98% 0.0 mm
04:45 10.1 °C 10.0 °C 1016.1 hPa Calm   7.9 km/h 98% 0.0 mm
04:50 10.0 °C 10.0 °C 1016.1 hPa Calm   6.4 km/h 98% 0.0 mm
04:55 10.0 °C 10.0 °C 1016.1 hPa WSW 6.4 km/h 6.4 km/h 98% 0.0 mm
05:00 10.0 °C 10.0 °C 1016.1 hPa West 8.7 km/h 9.3 km/h 98% 0.0 mm
05:05 10.0 °C 10.0 °C 1016.1 hPa WSW 8.7 km/h 9.3 km/h 98% 0.0 mm
05:10 9.9 °C 10.0 °C 1016.1 hPa WSW 5.8 km/h 8.7 km/h 98% 0.0 mm
05:16 9.9 °C 10.0 °C 1016.1 hPa WSW 6.1 km/h 6.9 km/h 98% 0.0 mm
05:21 9.8 °C 10.0 °C 1016.1 hPa Calm   6.1 km/h 98% 0.0 mm
05:22 9.8 °C 10.0 °C 1016.1 hPa Calm   6.1 km/h 98% 0.0 mm
05:23 9.7 °C 10.0 °C 1016.1 hPa Calm   6.1 km/h 98% 0.0 mm
05:27 9.7 °C 10.0 °C 1016.1 hPa Calm   6.4 km/h 98% 0.0 mm
05:28 9.7 °C 10.0 °C 1016.1 hPa Calm   6.4 km/h 98% 0.0 mm
05:29 9.7 °C 10.0 °C 1016.1 hPa WSW 5.5 km/h 6.4 km/h 98% 0.0 mm
05:34 9.7 °C 10.0 °C 1016.1 hPa WSW 6.4 km/h 6.9 km/h 98% 0.0 mm
05:39 9.7 °C 10.0 °C 1016.1 hPa WSW 7.6 km/h 7.6 km/h 98% 0.0 mm
05:44 9.6 °C 10.0 °C 1016.1 hPa WSW 4.7 km/h 8.7 km/h 98% 0.0 mm
05:49 9.6 °C 10.0 °C 1016.1 hPa WSW 7.6 km/h 8.7 km/h 98% 0.0 mm
05:54 9.5 °C 10.0 °C 1016.1 hPa WSW 8.7 km/h 8.7 km/h 98% 0.0 mm
05:59 9.5 °C 10.0 °C 1016.1 hPa WSW 5.5 km/h 8.7 km/h 98% 0.0 mm
06:04 9.4 °C 9.0 °C 1016.1 hPa WSW 6.9 km/h 8.7 km/h 98% 0.0 mm
06:09 9.4 °C 9.0 °C 1016.1 hPa West 5.5 km/h 6.9 km/h 98% 0.0 mm
06:15 9.4 °C 9.0 °C 1016.1 hPa West 7.6 km/h 7.6 km/h 98% 0.0 mm
06:20 9.3 °C 9.0 °C 1016.8 hPa Calm   7.6 km/h 98% 0.0 mm
06:25 9.3 °C 9.0 °C 1016.8 hPa Calm   6.9 km/h 98% 0.0 mm
06:30 9.2 °C 9.0 °C 1016.8 hPa Calm     98% 0.0 mm
06:35 9.2 °C 9.0 °C 1016.8 hPa Calm     98% 0.0 mm
06:40 9.2 °C 9.0 °C 1016.8 hPa WSW 6.1 km/h 6.1 km/h 98% 0.0 mm
06:45 9.1 °C 9.0 °C 1016.8 hPa Calm   7.9 km/h 98% 0.0 mm
06:50 9.1 °C 9.0 °C 1016.8 hPa WSW 6.1 km/h 7.9 km/h 98% 0.0 mm
06:55 9.1 °C 9.0 °C 1016.8 hPa Calm   6.1 km/h 98% 0.0 mm
07:00 9.0 °C 9.0 °C 1016.8 hPa West 6.9 km/h 6.9 km/h 98% 0.0 mm
07:05 8.9 °C 9.0 °C 1016.8 hPa Calm   6.9 km/h 98% 0.0 mm
07:11 8.9 °C 9.0 °C 1016.8 hPa Calm   5.8 km/h 98% 0.0 mm
07:16 8.9 °C 9.0 °C 1016.8 hPa Calm   1.8 km/h 98% 0.0 mm
07:17 8.9 °C 9.0 °C 1016.8 hPa Calm     98% 0.0 mm
07:22 8.9 °C 9.0 °C 1016.8 hPa Calm     98% 0.0 mm
07:27 8.9 °C 9.0 °C 1016.8 hPa Calm     98% 0.0 mm
07:32 8.8 °C 9.0 °C 1016.8 hPa Calm     98% 0.0 mm
07:37 8.8 °C 9.0 °C 1016.8 hPa Calm     98% 0.0 mm
07:42 8.8 °C 9.0 °C 1016.8 hPa Calm     98% 0.0 mm
07:47 8.7 °C 9.0 °C 1016.8 hPa Calm     98% 0.0 mm
07:52 8.7 °C 9.0 °C 1016.8 hPa Calm     98% 0.0 mm
07:57 8.7 °C 9.0 °C 1016.8 hPa Calm     98% 0.0 mm
08:02 8.7 °C 9.0 °C 1018.2 hPa Calm     98% 0.0 mm
08:07 8.7 °C 9.0 °C 1018.2 hPa Calm   5.8 km/h 98% 0.0 mm
08:12 8.7 °C 9.0 °C 1018.2 hPa Calm   8.7 km/h 98% 0.0 mm
08:17 8.9 °C 9.0 °C 1018.2 hPa Calm   8.7 km/h 98% 0.0 mm
08:22 8.9 °C 9.0 °C 1018.2 hPa Calm     98% 0.0 mm
08:27 8.9 °C 9.0 °C 1018.2 hPa Calm   6.9 km/h 98% 0.0 mm
08:32 8.9 °C 9.0 °C 1018.8 hPa WSW 1.8 km/h 6.9 km/h 98% 0.0 mm
08:37 8.9 °C 9.0 °C 1018.8 hPa West 8.7 km/h 8.7 km/h 98% 0.0 mm
08:42 9.5 °C 10.0 °C 1018.8 hPa West 7.9 km/h 9.0 km/h 98% 0.0 mm
08:47 9.7 °C 10.0 °C 1018.8 hPa SW 9.0 km/h 9.0 km/h 98% 0.0 mm
08:52 9.7 °C 10.0 °C 1018.8 hPa SW 9.0 km/h 9.0 km/h 98% 0.0 mm
08:53 9.7 °C 10.0 °C 1018.8 hPa SW 9.0 km/h 9.0 km/h 98% 0.0 mm
08:58 10.1 °C 10.0 °C 1018.8 hPa West 6.9 km/h 9.0 km/h 98% 0.0 mm
09:03 10.2 °C 10.0 °C 1018.8 hPa WSW 4.7 km/h 6.9 km/h 98% 0.3 mm
09:08 10.4 °C 10.0 °C 1018.8 hPa Calm   6.9 km/h 98% 0.3 mm
09:13 10.4 °C 10.0 °C 1018.8 hPa West 6.1 km/h 9.3 km/h 98% 0.3 mm
09:19 10.8 °C 11.0 °C 1018.8 hPa WSW 5.5 km/h 9.3 km/h 98% 0.3 mm
09:24 11.0 °C 11.0 °C 1018.8 hPa WSW 10.1 km/h 10.1 km/h 98% 0.3 mm
09:29 11.0 °C 11.0 °C 1018.8 hPa WSW 9.0 km/h 10.1 km/h 98% 0.3 mm
09:34 11.0 °C 11.0 °C 1018.2 hPa WSW 9.0 km/h 10.1 km/h 98% 0.3 mm
09:39 11.0 °C 11.0 °C 1018.2 hPa WSW 9.7 km/h 10.5 km/h 98% 0.3 mm
09:44 11.8 °C 12.0 °C 1018.2 hPa WSW 9.7 km/h 10.5 km/h 98% 0.3 mm
09:49 12.0 °C 12.0 °C 1018.8 hPa WSW 9.0 km/h 9.7 km/h 98% 0.3 mm
09:54 12.0 °C 12.0 °C 1018.8 hPa WSW 9.0 km/h 9.7 km/h 98% 0.3 mm
09:59 12.4 °C 13.0 °C 1018.8 hPa WSW 9.0 km/h 9.0 km/h 98% 0.3 mm
10:04 12.4 °C 13.0 °C 1018.8 hPa WSW 9.0 km/h 9.0 km/h 98% 0.0 mm
10:09 12.6 °C 13.0 °C 1018.8 hPa WSW 12.6 km/h 12.6 km/h 98% 0.0 mm
10:15 12.6 °C 13.0 °C 1018.8 hPa West 9.3 km/h 12.6 km/h 98% 0.0 mm
10:20 13.3 °C 13.0 °C 1018.8 hPa South 4.7 km/h 9.3 km/h 97% 0.0 mm
10:25 13.3 °C 13.0 °C 1018.8 hPa West 5.5 km/h 9.3 km/h 97% 0.0 mm
10:30 13.6 °C 13.0 °C 1019.9 hPa West 16.3 km/h 16.3 km/h 96% 0.0 mm
10:35 13.6 °C 13.0 °C 1019.9 hPa WSW 5.5 km/h 16.3 km/h 96% 0.0 mm
10:40 14.2 °C 14.0 °C 1019.9 hPa West 4.3 km/h 11.9 km/h 95% 0.0 mm
10:45 14.2 °C 14.0 °C 1019.9 hPa SSW 4.3 km/h 9.7 km/h 95% 0.0 mm
10:50 14.2 °C 14.0 °C 1019.9 hPa SSW 4.3 km/h 9.7 km/h 95% 0.0 mm
10:55 14.8 °C 13.0 °C 1019.9 hPa NW 9.3 km/h 9.7 km/h 91% 0.0 mm
11:00 14.8 °C 13.0 °C 1020.9 hPa NW 9.3 km/h 9.7 km/h 91% 0.0 mm
11:10 14.5 °C 13.0 °C 1020.9 hPa NW 9.3 km/h 9.3 km/h 87% 0.0 mm
11:15 14.5 °C 13.0 °C 1020.9 hPa NW 9.0 km/h 9.3 km/h 87% 0.0 mm
11:20 14.5 °C 13.0 °C 1020.9 hPa West 15.8 km/h 15.8 km/h 87% 0.0 mm
11:25 14.5 °C 13.0 °C 1020.9 hPa West 10.8 km/h 15.8 km/h 87% 0.0 mm
11:30 15.1 °C 12.0 °C 1020.9 hPa WNW 8.7 km/h 10.8 km/h 83% 0.0 mm
11:35 15.2 °C 13.0 °C 1020.9 hPa West 12.2 km/h 12.2 km/h 83% 0.0 mm
11:40 15.7 °C 13.0 °C 1020.9 hPa WSW 10.1 km/h 12.2 km/h 84% 0.0 mm
11:45 15.4 °C 12.0 °C 1020.9 hPa WSW 10.1 km/h 12.2 km/h 80% 0.0 mm
11:50 15.4 °C 12.0 °C 1020.9 hPa NNW 4.7 km/h 15.8 km/h 80% 0.0 mm
11:55 15.4 °C 12.0 °C 1020.9 hPa WNW 15.8 km/h 15.8 km/h 80% 0.0 mm
12:01 15.4 °C 12.0 °C 1020.9 hPa West 6.9 km/h 15.8 km/h 80% 0.0 mm
12:06 15.4 °C 12.0 °C 1020.9 hPa NNE 6.9 km/h 13.0 km/h 80% 0.0 mm
12:11 15.4 °C 12.0 °C 1020.9 hPa West 9.3 km/h 9.3 km/h 80% 0.0 mm
12:16 15.4 °C 12.0 °C 1020.9 hPa West 10.5 km/h 10.5 km/h 80% 0.0 mm
12:21 15.4 °C 12.0 °C 1020.9 hPa Calm   10.5 km/h 80% 0.0 mm
12:26 15.4 °C 12.0 °C 1020.9 hPa SW 7.9 km/h 13.0 km/h 80% 0.0 mm
12:31 15.7 °C 12.0 °C 1021.9 hPa West 12.6 km/h 13.0 km/h 76% 0.0 mm
12:36 15.7 °C 12.0 °C 1021.9 hPa North 4.7 km/h 12.6 km/h 76% 0.0 mm
12:41 16.2 °C 13.0 °C 1021.9 hPa NW 1.8 km/h 4.7 km/h 78% 0.0 mm
12:46 16.1 °C 12.0 °C 1021.9 hPa NW 1.8 km/h 4.7 km/h 76% 0.0 mm
12:51 16.1 °C 12.0 °C 1021.9 hPa WNW 9.3 km/h 9.3 km/h 76% 0.0 mm
12:56 16.1 °C 12.0 °C 1021.9 hPa WNW 13.7 km/h 13.7 km/h 76% 0.0 mm
13:01 16.1 °C 12.0 °C 1021.9 hPa West 12.2 km/h 13.7 km/h 76% 0.0 mm
13:06 16.1 °C 12.0 °C 1021.9 hPa West 12.2 km/h 13.7 km/h 76% 0.0 mm
13:11 15.7 °C 11.0 °C 1021.9 hPa West 12.2 km/h 12.2 km/h 72% 0.0 mm
13:16 16.5 °C 12.0 °C 1021.9 hPa Calm   12.2 km/h 72% 0.0 mm
13:21 16.5 °C 12.0 °C 1021.9 hPa West 9.0 km/h 10.8 km/h 72% 0.0 mm
13:22 16.5 °C 12.0 °C 1021.9 hPa West 9.0 km/h 10.8 km/h 72% 0.0 mm
13:27 16.5 °C 12.0 °C 1021.9 hPa West 12.2 km/h 14.8 km/h 72% 0.0 mm
13:32 18.2 °C 13.0 °C 1021.9 hPa NW 9.3 km/h 14.8 km/h 69% 0.0 mm
13:37 18.2 °C 13.0 °C 1021.9 hPa WNW 11.6 km/h 13.0 km/h 69% 0.0 mm
13:42 18.2 °C 13.0 °C 1021.9 hPa NW 9.3 km/h 13.0 km/h 69% 0.0 mm
13:47 18.2 °C 13.0 °C 1021.9 hPa West 10.1 km/h 12.2 km/h 69% 0.0 mm
13:52 18.2 °C 13.0 °C 1021.9 hPa West 6.1 km/h 14.0 km/h 69% 0.0 mm
13:57 18.2 °C 13.0 °C 1021.9 hPa NNE 9.0 km/h 14.0 km/h 69% 0.0 mm
14:02 18.2 °C 13.0 °C 1021.9 hPa NNE 9.0 km/h 14.0 km/h 69% 0.0 mm
14:08 16.2 °C 10.0 °C 1021.9 hPa NNW 5.8 km/h 5.8 km/h 64% 0.0 mm
14:13 16.2 °C 10.0 °C 1021.9 hPa West 6.9 km/h 6.9 km/h 64% 0.0 mm
14:18 16.2 °C 10.0 °C 1022.9 hPa West 9.3 km/h 9.7 km/h 64% 0.0 mm
14:23 16.2 °C 10.0 °C 1022.9 hPa SW 5.8 km/h 9.7 km/h 64% 0.0 mm
14:28 16.2 °C 10.0 °C 1022.9 hPa South 2.6 km/h 15.8 km/h 64% 0.0 mm
14:33 16.2 °C 10.0 °C 1022.9 hPa West 2.1 km/h 15.8 km/h 67% 0.0 mm
14:38 16.2 °C 10.0 °C 1022.9 hPa East 11.9 km/h 11.9 km/h 67% 0.0 mm
14:43 16.2 °C 10.0 °C 1022.9 hPa WNW 9.3 km/h 11.9 km/h 67% 0.0 mm
14:48 16.2 °C 10.0 °C 1022.9 hPa Calm   9.3 km/h 67% 0.0 mm
14:53 16.2 °C 10.0 °C 1022.9 hPa NW 7.9 km/h 10.5 km/h 67% 0.0 mm
14:58 16.2 °C 10.0 °C 1022.9 hPa WNW 5.8 km/h 10.5 km/h 67% 0.0 mm
15:03 17.6 °C 12.0 °C 1022.9 hPa South 11.9 km/h 17.2 km/h 67% 0.0 mm
15:08 17.6 °C 12.0 °C 1022.9 hPa Calm   17.2 km/h 67% 0.0 mm
15:13 16.1 °C 10.0 °C 1022.9 hPa WSW 2.1 km/h 10.5 km/h 66% 0.0 mm
15:18 16.1 °C 10.0 °C 1022.9 hPa West 6.9 km/h 10.5 km/h 66% 0.0 mm
15:23 16.1 °C 10.0 °C 1022.9 hPa WNW 15.8 km/h 15.8 km/h 66% 0.0 mm
15:28 16.1 °C 10.0 °C 1022.9 hPa WNW 7.9 km/h 15.8 km/h 66% 0.0 mm
15:34 16.1 °C 10.0 °C 1022.9 hPa NNW 6.4 km/h 11.6 km/h 66% 0.0 mm
15:39 16.1 °C 10.0 °C 1022.9 hPa WSW 3.2 km/h 14.0 km/h 66% 0.0 mm
15:44 16.6 °C 10.0 °C 1022.9 hPa WNW 5.5 km/h 14.0 km/h 65% 0.0 mm
15:49 16.6 °C 10.0 °C 1022.9 hPa WNW 4.0 km/h 10.5 km/h 65% 0.0 mm
15:54 16.6 °C 10.0 °C 1022.9 hPa West 6.1 km/h 10.5 km/h 65% 0.0 mm
15:59 16.6 °C 10.0 °C 1022.9 hPa NNE 12.6 km/h 12.6 km/h 65% 0.0 mm
16:04 17.4 °C 9.0 °C 1022.9 hPa WNW 9.7 km/h 12.6 km/h 59% 0.0 mm
16:09 17.1 °C 9.0 °C 1022.9 hPa WNW 5.8 km/h 12.6 km/h 59% 0.0 mm
16:14 17.1 °C 9.0 °C 1022.9 hPa Calm   9.7 km/h 59% 0.0 mm
16:19 17.1 °C 9.0 °C 1021.9 hPa WNW 4.0 km/h 4.3 km/h 59% 0.0 mm
16:24 16.9 °C 10.0 °C 1021.9 hPa West 5.8 km/h 5.8 km/h 63% 0.0 mm
16:29 16.3 °C 9.0 °C 1021.9 hPa NW 4.7 km/h 5.8 km/h 62% 0.0 mm
16:34 16.5 °C 10.0 °C 1022.9 hPa NNE 10.5 km/h 10.5 km/h 64% 0.0 mm
16:39 17.4 °C 10.0 °C 1022.9 hPa WNW 4.7 km/h 10.5 km/h 62% 0.0 mm
16:44 17.4 °C 10.0 °C 1022.9 hPa North 5.5 km/h 10.5 km/h 62% 0.0 mm
16:49 17.9 °C 11.0 °C 1022.9 hPa WSW 3.2 km/h 9.3 km/h 63% 0.0 mm
16:54 18.3 °C 11.0 °C 1022.9 hPa WSW 3.2 km/h 9.3 km/h 61% 0.0 mm
16:56 18.3 °C 11.0 °C 1022.9 hPa NNE 10.1 km/h 10.1 km/h 61% 0.0 mm
17:01 17.8 °C 9.0 °C 1022.9 hPa WNW 10.5 km/h 10.5 km/h 58% 0.0 mm
17:06 17.8 °C 9.0 °C 1022.9 hPa NW 8.7 km/h 10.5 km/h 58% 0.0 mm
17:11 17.8 °C 9.0 °C 1022.9 hPa NNW 6.1 km/h 10.5 km/h 58% 0.0 mm
17:16 17.8 °C 9.0 °C 1022.9 hPa NNW 6.4 km/h 11.6 km/h 58% 0.0 mm
17:21 17.9 °C 10.0 °C 1022.9 hPa NNE 12.2 km/h 12.2 km/h 58% 0.0 mm
17:26 17.6 °C 9.0 °C 1022.9 hPa NW 9.7 km/h 12.2 km/h 57% 0.0 mm
17:31 17.6 °C 9.0 °C 1022.9 hPa NNW 1.4 km/h 12.2 km/h 57% 0.0 mm
17:36 17.6 °C 9.0 °C 1022.9 hPa Calm   9.7 km/h 57% 0.0 mm
17:41 17.3 °C 9.0 °C 1022.9 hPa WNW 4.0 km/h 7.9 km/h 58% 0.0 mm
17:46 17.2 °C 9.0 °C 1021.9 hPa NW 11.1 km/h 11.1 km/h 59% 0.0 mm
17:51 17.1 °C 9.0 °C 1021.9 hPa NNW 5.0 km/h 11.1 km/h 59% 0.0 mm
17:56 17.0 °C 9.0 °C 1021.9 hPa NNW 2.6 km/h 8.7 km/h 60% 0.0 mm
18:01 16.9 °C 9.0 °C 1022.9 hPa Calm   4.7 km/h 59% 0.0 mm
18:06 16.8 °C 9.0 °C 1022.9 hPa West 4.3 km/h 9.7 km/h 60% 0.0 mm
18:11 16.4 °C 9.0 °C 1022.9 hPa North 4.3 km/h 9.7 km/h 60% 0.0 mm
18:16 16.4 °C 9.0 °C 1022.9 hPa Calm   6.4 km/h 60% 0.0 mm
18:21 16.4 °C 9.0 °C 1022.9 hPa Calm   5.5 km/h 60% 0.0 mm
18:26 15.5 °C 9.0 °C 1022.9 hPa Calm   5.5 km/h 63% 0.0 mm
18:31 15.5 °C 9.0 °C 1022.9 hPa Calm     63% 0.0 mm
18:52 14.6 °C 9.0 °C 1022.9 hPa Calm   2.6 km/h 67% 0.0 mm
18:57 14.3 °C 9.0 °C 1022.9 hPa Calm   2.6 km/h 68% 0.0 mm
19:02 14.3 °C 9.0 °C 1022.9 hPa Calm     68% 0.0 mm
19:07 13.8 °C 9.0 °C 1022.9 hPa Calm   5.0 km/h 70% 0.0 mm
19:12 13.6 °C 9.0 °C 1022.9 hPa Calm   5.0 km/h 71% 0.0 mm
19:17 13.6 °C 9.0 °C 1022.9 hPa Calm   5.0 km/h 71% 0.0 mm
19:22 13.6 °C 9.0 °C 1022.9 hPa Calm     71% 0.0 mm
19:27 13.6 °C 9.0 °C 1022.9 hPa WNW 4.0 km/h 4.0 km/h 71% 0.0 mm
19:32 12.9 °C 9.0 °C 1023.9 hPa Calm   4.3 km/h 74% 0.0 mm
19:37 12.9 °C 9.0 °C 1023.9 hPa Calm   4.3 km/h 74% 0.0 mm
19:42 12.5 °C 9.0 °C 1023.9 hPa Calm     75% 0.0 mm
19:47 12.5 °C 9.0 °C 1023.9 hPa Calm     75% 0.0 mm
19:52 12.1 °C 9.0 °C 1023.9 hPa Calm     78% 0.0 mm
19:57 12.1 °C 9.0 °C 1023.9 hPa Calm     78% 0.0 mm
20:02 12.1 °C 9.0 °C 1024.9 hPa Calm     78% 0.0 mm
20:07 12.0 °C 9.0 °C 1024.9 hPa Calm     81% 0.0 mm
20:08 12.0 °C 9.0 °C 1024.9 hPa Calm     81% 0.0 mm
20:13 12.0 °C 9.0 °C 1024.9 hPa Calm   5.0 km/h 81% 0.0 mm
20:18 11.8 °C 9.0 °C 1024.9 hPa Calm   5.0 km/h 83% 0.0 mm
20:23 11.8 °C 9.0 °C 1024.9 hPa Calm     83% 0.0 mm
20:28 11.8 °C 9.0 °C 1024.9 hPa Calm     83% 0.0 mm
20:33 11.8 °C 9.0 °C 1024.9 hPa Calm     83% 0.0 mm
20:38 11.8 °C 9.0 °C 1024.9 hPa Calm     83% 0.0 mm
20:43 11.8 °C 9.0 °C 1024.9 hPa Calm     83% 0.0 mm
20:48 11.8 °C 9.0 °C 1024.9 hPa Calm     83% 0.0 mm
20:53 11.8 °C 9.0 °C 1024.9 hPa Calm     83% 0.0 mm
20:58 11.1 °C 9.0 °C 1024.9 hPa Calm     85% 0.0 mm
21:03 11.1 °C 9.0 °C 1024.9 hPa Calm     85% 0.0 mm
21:08 11.1 °C 9.0 °C 1024.9 hPa Calm     85% 0.0 mm
21:13 11.1 °C 9.0 °C 1024.9 hPa Calm     85% 0.0 mm
21:18 11.1 °C 9.0 °C 1024.9 hPa Calm   5.0 km/h 85% 0.0 mm
21:23 11.1 °C 9.0 °C 1024.9 hPa Calm   5.0 km/h 85% 0.0 mm
21:28 11.1 °C 9.0 °C 1024.9 hPa Calm     85% 0.0 mm
21:33 11.1 °C 9.0 °C 1024.9 hPa Calm     85% 0.0 mm
21:38 11.1 °C 9.0 °C 1024.9 hPa Calm   4.0 km/h 85% 0.0 mm
21:43 11.1 °C 9.0 °C 1024.9 hPa Calm   4.0 km/h 85% 0.0 mm
21:48 10.4 °C 9.0 °C 1024.9 hPa Calm     87% 0.0 mm
21:53 10.4 °C 9.0 °C 1024.9 hPa West 1.4 km/h 5.0 km/h 87% 0.0 mm
21:59 10.4 °C 9.0 °C 1024.9 hPa Calm   5.0 km/h 87% 0.0 mm
22:04 10.4 °C 9.0 °C 1024.9 hPa Calm     87% 0.0 mm
22:09 10.2 °C 9.0 °C 1024.9 hPa Calm     89% 0.0 mm
22:14 10.2 °C 9.0 °C 1024.9 hPa Calm     89% 0.0 mm
22:19 10.2 °C 9.0 °C 1024.9 hPa Calm     89% 0.0 mm
22:24 10.2 °C 9.0 °C 1024.9 hPa WSW 1.8 km/h 1.8 km/h 89% 0.0 mm
22:29 10.2 °C 9.0 °C 1024.9 hPa Calm   1.8 km/h 89% 0.0 mm
22:34 10.2 °C 9.0 °C 1024.9 hPa Calm   1.8 km/h 89% 0.0 mm
22:39 10.2 °C 9.0 °C 1024.9 hPa Calm     89% 0.0 mm
22:49 10.2 °C 9.0 °C 1024.9 hPa Calm   1.4 km/h 89% 0.0 mm
22:54 10.2 °C 9.0 °C 1024.9 hPa Calm   3.2 km/h 89% 0.0 mm
22:59 10.2 °C 9.0 °C 1024.9 hPa Calm   3.2 km/h 89% 0.0 mm
23:04 10.2 °C 9.0 °C 1024.9 hPa Calm     89% 0.0 mm
23:09 10.2 °C 9.0 °C 1024.9 hPa West 5.8 km/h 5.8 km/h 89% 0.0 mm
23:14 10.2 °C 9.0 °C 1024.9 hPa West 5.8 km/h 5.8 km/h 89% 0.0 mm
23:19 10.2 °C 9.0 °C 1024.9 hPa Calm   5.8 km/h 89% 0.0 mm
23:24 10.4 °C 9.0 °C 1024.9 hPa Calm   4.3 km/h 92% 0.0 mm
23:29 10.4 °C 9.0 °C 1024.9 hPa West 4.7 km/h 4.7 km/h 92% 0.0 mm
23:34 10.4 °C 9.0 °C 1024.9 hPa Calm   5.0 km/h 92% 0.0 mm
23:39 10.4 °C 9.0 °C 1024.9 hPa Calm   5.0 km/h 92% 0.0 mm
23:44 10.4 °C 9.0 °C 1024.9 hPa Calm     92% 0.0 mm
23:49 10.3 °C 9.0 °C 1024.9 hPa Calm     93% 0.0 mm
23:54 10.4 °C 9.0 °C 1024.9 hPa Calm     94% 0.0 mm
23:59 10.4 °C 9.0 °C 1024.9 hPa Calm     94% 0.0 mm
Données Historique de Météo Turbie

Mise a jour : 20/06/2018 18:57:11
Généré par Cumulus 1.9.4 (1099)